Regional Weather Roundup
Issued by NWS Burlington, VT

Current Version | Previous Version | Text Only | Print | Product List | Glossary On
Versions: 1 2 3 4 5 6 7 8 9 10 11 12 13 14 15 16 17 18 19 20 21 22 23 24 25 26 27 28 29 30 31 32 33 34 35 36 37 38 39 40 41 42 43 44 45 46 47 48 49 50
000
ASUS41 KBTV 230530
RWRBTV
VERMONT REGIONAL WEATHER ROUNDUP
NATIONAL WEATHER SERVICE BURLINGTON VT
1200 AM EST SUN NOV 23 2014

NOTE: "FAIR" INDICATES FEW OR NO CLOUDS BELOW 12,000 FEET WITH NO
SIGNIFICANT WEATHER AND/OR OBSTRUCTIONS TO VISIBILITY.

* THESE REPORTS ARE NOT UNDER NWS QUALITY CONTROL AND/OR DO NOT
  REPORT WEATHER SUCH AS PRECIPITATION AND FOG.

VTZ001>019-230600-
_____VERMONT_____


CITY           SKY/WX    TMP DP  RH WIND       PRES   REMARKS
BURLINGTON     CLOUDY    40  25  55 S15       29.95R
MONTPELIER     CLOUDY    42  34  73 SW9G20    29.96R
ST. JOHNSBURY*   N/A     39  26  59 MISG      29.92S
LYNDONVILLE*   CLOUDY    35  23  63 SE5       29.93S
MIDDLEBURY*    CLOUDY    40  30  65 S12G17    29.99F
RUTLAND*       CLOUDY    41  32  70 SW5G17    30.03S
SPRINGFIELD    CLOUDY    41  29  62 VRB3      30.01R
HIGHGATE*      CLOUDY    38  28  65 S10G18    29.91F
NEWPORT*       CLOUDY    33  32  98 SE3       29.91S FOG
BENNINGTON     CLOUDY    38  30  73 CALM      30.06R
GALLUP MILLS*    N/A     30 N/A N/A MISG        N/A
UNION VILLAGE*   N/A     36 N/A N/A MISG        N/A
MT. MANSFIELD*   N/A     28 N/A N/A NW18G33     N/A  WCI  16

_____LAKE CHAMPLAIN_____


CITY           SKY/WX    TMP DP  RH WIND       PRES   REMARKS
BURTON ISLAND*   N/A     41  32  70 S25         N/A
COLCHESTER RF*   N/A     41  32  70 SW29        N/A
DIAMOND ISL*     N/A     39  28  65 S17         N/A

$$

NYZ007-026>031-035-052-083-230600-
_____NORTHERN NEW YORK_____


CITY           SKY/WX    TMP DP  RH WIND       PRES   REMARKS
PLATTSBURGH    CLOUDY    39  28  64 S6        29.93S
SARANAC LAKE   CLOUDY    37  35  92 SW14      29.90R FOG
MASSENA        LGT RAIN  40  39  97 SW14      29.92F FOG
OGDENSBURG*    RAIN      41  39  93 SW9       29.92F
POTSDAM*       RAIN      39  39 100 SW13      29.92F
STARK FALLS*     N/A     39 N/A N/A SW13        N/A
WATERTOWN      LGT RAIN  42  37  82 S12G20    29.96R
FT DRUM        LGT RAIN  41  41 100 SW12      29.94S
ALBANY         LGT RAIN  37  28  70 S8        30.09S
GLENS FALLS    CLOUDY    37  24  59 S10       30.04S

$$
NHZ002-005-011-230600-
_____NEW HAMPSHIRE_____


CITY           SKY/WX    TMP DP  RH WIND       PRES   REMARKS
LEBANON        CLOUDY    41  26  55 S13       29.97F
KEENE          CLOUDY    37  19  48 S5        30.05F
MT WASHINGTON  FOG       19  19 100 NW61        N/A  VSB 0   WCI  -5
PLYMOUTH       CLOUDY    33  26  76 CALM      29.97R
WHITEFIELD     CLOUDY    39  29  67 W3        29.93R

$$

_____REGIONAL QUEBEC LOCATIONS_____


CITY           SKY/WX    TMP DP  RH WIND       PRES   REMARKS
MONTREAL       DRIZZLE   37  36  93 W10       29.90S FOG
QUEBEC CITY    DRIZZLE   32  30  93 SW16      29.83F
SHERBROOKE     LGT RAIN  34  34 100 SW3       29.88S FOG

_____REGIONAL ONTARIO LOCATIONS_____


CITY           SKY/WX    TMP DP  RH WIND       PRES   REMARKS
OTTAWA         CLOUDY    37  37 100 SW8       29.90R FOG

______KEY______
VSB  - VISIBILITY IN MILES
WCI  - WIND CHILL INDEX
HX   - HEAT INDEX
$$
NNNN


USA.gov is the U.S. government's official web portal to all federal, state and local government web resources and services.